Location: Kosice
(0.0000°N, 21.2500°E)
Time: 06:04:39
(UTC+01:00)

Cosmos 1125 Rocket - Pass Details

Date: 24 January 2021
Orbit: 756 x 781 km, 74.0° (Epoch: 04 March)

Event Time Altitude Azimuth Distance (km) Brightness Sun altitude
Rises 18:53:48 0° 197° (SSW) 3,209 7.3 -15.7°
Reaches altitude 10° 18:56:11 10° 200° (SSW) 2,282 6.5 -16.3°
Maximum altitude 19:01:19 68° 282° (WNW) 814 3.8 -17.5°
Drops below altitude 10° 19:06:27 10° 5° (N) 2,279 5.7 -18.7°
Enters shadow 19:07:10 - 6° (N) 2,556 6.0 -18.9°
